Weather in Ugleural'skij

Russia / Perm Krai     58°56′26″N   57°35′13″E
В апреле 2022 года жителям России запретили посещать сайт meteo.paraplan.net по решению Генеральной прокуратуры. Аудитория сайта уменьшилась в 10 раз. Владельцы сайта не видят смысла в поддержке погодного сервера в таких условиях. Сайт будет закрыт в октябре.
temp.,
°C
wind,
m/s
gust,
m/s
humid.,
%
clouds,
%
prec.,
mm/h
press.,
hPa
HPBL,
m
29 september, thu
thu2923:00−4ese27785 0.0 1029159
02:00−4ese39795 0.0 1028257
05:00−5ese39815 0.0 1029276
08:00−4ese310805 0.0 1028420
11:00+1ese58525 0.0 1027924
14:00+3ese57435 0.0 10271159
17:00+3ese58474 0.0 10271146
20:00−1ese512620 0.0 1028652
30 september, fri
fri3023:00−2ese514640 0.0 1029658
02:00−3ese514710 0.0 1030598
05:00−3ese515720 0.0 1030546
08:00−3ese615710 0.0 1031558
11:00+3se6135213 0.0 1031723
14:00+6se584470 0.0 10311032
17:00+5se485357 0.0 1031984
20:00+1se4117067 0.0 1032428
1 october, sat
sat123:00+1se41174100 0.0 1032426
02:00+1se3974100 0.0 1031372
05:00+1se3973100 0.0 1031348
08:00+1se2873100 0.0 1031332
11:00+3se3667100 0.0 1030354
14:00+8sse465889 0.0 1028729
17:00+8sse376571 0.0 1027860
20:00+4sse2487100 0.0 102783
2 october, sun
sun223:00+3se249599 0.0 102685
02:00+2se239696 0.0 102685
05:00+1ese239790 0.0 102568
08:00+1se2596100 0.0 1024133
11:00+7sse41168100 0.0 1022489
14:00+11s595574 0.0 1020729
17:00+11s51164100 0.0 1019793
20:00+9sse4147378 0.0 1019531
3 october, mon
mon323:00+10sse5136895 0.0 1018588
02:00+8sse51469100 0.0 1017565
05:00+8s51591100 4.7 1013668
08:00+7s41380100 1.5 1018618
11:00+7s41289100 5.4 1018535
14:00+7s41192100 1.4 1020510
17:00+7s41096100 5.3 1020389
20:00+7ssw31093100 5.2 1022450